Location: Eastlake (historical)
(39.0077°N, 122.6678°W)
Time: 05:59:52
(UTC+00:00)

Cosmos 1844 Rocket - Pass Details

Date: 25 November 2020
Orbit: 824 x 845 km, 71.0° (Epoch: 27 January)

Event Time Altitude Azimuth Distance (km) Brightness Sun altitude
Rises 13:44:29 0° 188° (S) 3,364 5.9 -15.5°
Reaches altitude 10° 13:46:57 10° 184° (S) 2,438 5.2 -15.0°
Maximum altitude 13:52:23 56° 108° (ESE) 996 3.5 -14.0°
Drops below altitude 10° 13:57:54 10° 31° (NNE) 2,466 5.3 -13.0°
Sets 14:00:24 0° 28° (NNE) 3,406 6.0 -12.5°
